Date,TemperatureHighF,TemperatureAvgF,TemperatureLowF,DewpointHighF,DewpointAvgF,DewpointLowF,HumidityHigh,HumidityAvg,HumidityLow,PressureMaxIn,PressureMinIn,WindSpeedMaxMPH,WindSpeedAvgMPH,GustSpeedMaxMPH,PrecipitationSumIn
2013-1-1,24.4,17.4,8.1,14.2,7.2,-1.7,75,64,52,30.27,30.14,0,0,0,0.00
2013-1-2,32.7,17.8,7.0,16.7,6.4,-2.2,69,61,47,30.26,30.15,0,0,0,0.00
2013-1-3,36.9,26.7,18.9,24.6,17.0,7.7,75,67,54,30.39,30.18,6,1,13,0.00
2013-1-4,37.2,24.8,12.6,20.7,12.8,3.4,68,60,48,30.40,30.28,8,3,17,0.02
2013-1-5,40.8,33.1,24.6,29.6,22.8,13.5,75,66,56,30.28,30.05,9,3,15,0.07
2013-1-6,37.9,29.6,22.3,29.4,18.4,13.2,72,62,49,30.37,30.04,8,4,20,0.00
2013-1-7,44.4,31.8,22.3,28.4,20.7,13.7,70,63,51,30.37,30.13,6,2,12,0.00
2013-1-8,51.6,38.3,28.8,32.6,26.1,20.2,70,62,44,30.18,30.08,4,2,8,0.00
2013-1-9,52.9,42.8,33.6,33.7,29.7,22.9,74,60,42,30.49,30.13,5,2,12,0.00
2013-1-10,51.8,41.1,33.8,47.4,33.1,23.7,86,74,58,30.47,29.79,4,2,11,1.58
2013-1-11,61.5,53.6,47.7,49.7,45.6,43.4,86,75,61,29.85,29.72,8,4,21,0.09
2013-1-12,55.4,43.2,27.7,44.9,33.0,20.5,80,68,54,29.99,29.76,6,3,17,0.18
2013-1-13,27.5,20.7,14.7,20.3,11.5,5.2,74,67,57,30.35,29.92,0,0,0,0.00
2013-1-14,27.5,18.1,13.3,12.7,7.6,3.8,69,63,52,30.49,30.35,0,0,0,0.00
2013-1-15,30.0,21.2,13.1,17.1,11.0,4.9,70,64,54,30.44,30.14,0,0,0,0.00
2013-1-16,40.6,28.9,17.1,23.2,16.1,7.7,72,59,46,30.16,29.98,11,2,20,0.05
2013-1-17,37.4,31.4,24.6,24.5,18.1,10.7,75,59,34,30.46,30.11,7,2,18,0.00
2013-1-18,50.7,37.0,24.6,29.3,21.8,13.3,64,54,42,30.48,30.07,8,3,19,0.02
2013-1-19,58.1,46.3,37.9,36.3,30.0,24.8,61,53,42,30.12,29.88,15,6,28,0.00
2013-1-20,40.3,23.6,17.6,27.5,6.7,-0.2,64,48,37,30.37,30.12,8,3,18,0.00
2013-1-21,17.6,13.2,8.1,4.9,-7.9,-16.1,57,39,23,30.39,30.29,8,5,21,0.00
2013-1-22,16.0,11.3,5.2,-4.8,-10.2,-12.9,46,37,26,30.48,30.36,5,2,12,0.00
2013-1-23,39.4,24.1,12.4,17.5,7.2,-5.5,57,48,38,30.38,30.12,7,3,16,0.00
2013-1-24,26.2,18.5,10.2,4.9,-1.5,-8.7,53,41,29,30.63,30.27,6,3,14,0.00
2013-1-25,41.7,30.3,23.9,18.0,11.3,4.7,60,45,34,30.27,30.08,8,3,17,0.00
2013-1-26,37.2,25.6,14.4,17.3,7.1,-0.1,60,45,27,30.41,30.23,3,2,9,0.00
2013-1-27,46.8,34.7,24.4,42.5,26.7,10.7,85,73,50,30.32,29.89,6,3,17,0.28
2013-1-28,69.3,56.7,46.8,57.1,50.2,42.5,85,79,65,29.95,29.81,5,3,11,0.02
2013-1-29,66.0,58.6,51.6,56.8,51.9,46.8,84,79,70,29.80,29.41,9,3,22,1.95
2013-1-30,51.6,34.0,21.9,46.9,25.9,7.5,86,72,49,29.89,29.33,16,6,27,0.25
2013-1-31,25.2,18.8,6.8,13.9,3.7,-10.8,63,51,41,30.37,29.88,9,6,22,0.00